Victoria, British Columbia

1:01 PM PDT on April 21, 2018 (GMT -0700)
Victoria International

Weather History for CYYJ - September, 2013

Change the Weather History Date:

Friday, September 20, 2013

  Actual Average Record
Temperature  
Mean Temperature 54 °F -  
Max Temperature 64 °F 60 °F 73 °F (2014)
Min Temperature 44 °F 44 °F 42 °F (2002)
Degree Days  
Heating Degree Days 11    
Growing Degree Days 4 (Base 50)    
Moisture  
Dew Point 51 °F    
Average Humidity 85    
Maximum Humidity 100    
Minimum Humidity 63    
Precipitation  
Precipitation 0.00 in 0.08 in - ()
Sea Level Pressure  
Sea Level Pressure 29.66 in    
Wind  
Wind Speed 4 mph ()    
Max Wind Speed 10 mph    
Max Gust Speed -    
Visibility 12.6 miles    
Events Rain    
Averages and records for this station are not official NWS values.
T = Trace of Precipitation, MM = Missing Value Source: Averaged Metar Reports

Daily Weather History Graph

Daily Weather History Graph

Search for Another Location

Airport or City:

Astronomy

Sep. 20, 2013 Rise Set
Actual Time 6:58 AM PDT 7:15 PM PDT
Civil Twilight 6:26 AM PDT 7:46 PM PDT
Nautical Twilight 5:49 AM PDT 8:23 PM PDT
Astronomical Twilight 5:10 AM PDT 9:01 PM PDT
Moon 7:39 PM PDT (9/20) 8:29 AM PDT (9/20)
Length of Visible Light 13h 19m
Length of Day
12h 17m
Full, 98% of the Moon is Illuminated
Sep 20
Full
Sep 26
Last Quarter
Oct 4
New
Oct 11
First Quarter
Oct 18
Full

Hourly Weather History & Observations

Time (PDT) Temp. Windchill Dew Point Humidity Pressure Visibility Wind Dir Wind Speed Gust Speed Precip Events Conditions
12:00 AM 51.8 °F - 48.2 °F 88% 29.76 in 30.0 mi WSW 6.9 mph - N/A   Partly Cloudy
1:00 AM 51.8 °F - 50.0 °F 94% 29.75 in 30.0 mi SW 4.6 mph - N/A   Partly Cloudy
2:00 AM 50.0 °F - 46.4 °F 87% 29.75 in 30.0 mi WSW 5.8 mph - N/A   Partly Cloudy
3:00 AM 50.0 °F - 46.4 °F 87% 29.73 in 30.0 mi Calm Calm - N/A   Scattered Clouds
4:00 AM 50.0 °F - 48.2 °F 94% 29.72 in 30.0 mi ENE 2.3 mph - N/A   Mostly Cloudy
5:00 AM 47 °F - 45 °F 92% 29.70 in 28 mi WSW 1.2 mph - -   Clear
5:00 AM 48.2 °F - 44.6 °F 87% 29.70 in 30.0 mi Calm Calm - N/A   Mostly Cloudy
6:00 AM 46.4 °F - 44.6 °F 93% 29.69 in 30.0 mi SW 2.3 mph - N/A   Mostly Cloudy
7:00 AM 46.4 °F 45.2 °F 44.6 °F 93% 29.68 in 30.0 mi WSW 3.5 mph - N/A   Mostly Cloudy
8:00 AM 50.0 °F - 48.2 °F 94% 29.67 in 30.0 mi SE 3.5 mph - N/A   Mostly Cloudy
9:00 AM 53.6 °F - 50.0 °F 88% 29.66 in 30.0 mi WSW 2.3 mph - N/A   Mostly Cloudy
10:00 AM 55.4 °F - 51.8 °F 88% 29.66 in 30.0 mi West 2.3 mph - N/A   Mostly Cloudy
11:00 AM 58 °F - 52 °F 74% 29.65 in 28 mi NW 1.2 mph - -   Scattered Clouds
11:00 AM 59.0 °F - 51.8 °F 77% 29.65 in 30.0 mi West 3.5 mph - N/A   Mostly Cloudy
12:00 PM 59.0 °F - 51.8 °F 77% 29.65 in 30.0 mi WNW 6.9 mph - N/A   Mostly Cloudy
1:00 PM 64.4 °F - 51.8 °F 64% 29.63 in 30.0 mi Calm Calm - N/A   Mostly Cloudy
2:00 PM 64.4 °F - 53.6 °F 68% 29.62 in 30.0 mi WNW 6.9 mph - N/A   Mostly Cloudy
3:00 PM 62.6 °F - 51.8 °F 68% 29.60 in 30.0 mi East 6.9 mph - N/A   Mostly Cloudy
4:00 PM 62.6 °F - 50.0 °F 63% 29.59 in 30.0 mi ENE 4.6 mph - N/A   Mostly Cloudy
5:00 PM 62.6 °F - 51.8 °F 68% 29.61 in 30.0 mi SSW 4.6 mph - N/A   Mostly Cloudy
5:31 PM 62.6 °F - 51.8 °F 68% 29.61 in 20.0 mi Calm Calm - N/A Rain Light Rain
6:00 PM 60.8 °F - 55.4 °F 82% 29.61 in 30.0 mi WSW 2.3 mph - N/A Rain Light Rain
7:00 PM 59.0 °F - 55.4 °F 88% 29.61 in 30.0 mi Calm Calm - N/A   Overcast
7:16 PM 57.2 °F - 53.6 °F 88% 29.62 in 30.0 mi East 10.4 mph - N/A Rain Light Rain
8:00 PM 57.2 °F - 55.4 °F 94% 29.63 in 30.0 mi ESE 5.8 mph - N/A Rain Light Rain
9:00 PM 57.2 °F - 55.4 °F 94% 29.64 in 20.0 mi ENE 6.9 mph - N/A Rain Light Rain
10:00 PM 55.4 °F - 53.6 °F 94% 29.64 in 20.0 mi East 9.2 mph - N/A Rain Light Rain
10:24 PM 53.6 °F - 53.6 °F 100% 29.64 in 2.0 mi East 5.8 mph - N/A Rain Light Rain
11:00 PM 53.6 °F - 53.6 °F 100% 29.65 in 1.0 mi East 5.8 mph - N/A Rain Light Rain